Location: Chaumontel
(49.1247°N, 2.4324°E)
Time: 01:57:49
(UTC+00:00)

IRIDIUM 103 - Pass Details

Date: 19 May 2025
Orbit: 775 x 779 km, 86.4° (Epoch: 12 June)

Event Time Altitude Azimuth Distance (km) Brightness Sun altitude
Exits shadow 02:35:11 12° 250° (WSW) 2,229 6.2 -11.6°
Maximum altitude 02:38:22 19° 290° (WNW) 1,812 6.0 -11.2°
Drops below altitude 10° 02:41:59 10° 334° (NNW) 2,342 7.1 -10.8°
Sets 02:45:05 0° 353° (N) 3,275 8.2 -10.5°
